CW3590 Weather Reports


Display with metric or nautical units.
time (UTC)temp
F
wind
direction
speed
MPH
gust
MPH
rain 1hr
in
rain 24hr
in
rain mn
in
humidity
%
barometer
mb
20260505033007 72 166 2.0 7.0 0.00 0.00 0.00 74 1007.3
20260505032007 72 153 3.0 9.0 0.00 0.00 0.00 73 1007.1
20260505031007 72 150 2.0 6.0 0.00 0.00 0.00 72 1007.0
20260505025008 72 177 2.0 4.0 0.00 0.00 0.00 71 1007.0
20260505024007 73 148 2.0 6.0 0.00 0.00 0.00 70 1006.8
20260505023008 73 162 1.0 3.0 0.00 0.00 0.00 70 1007.0
20260505022007 73 154 1.0 3.0 0.00 0.00 0.00 69 1007.0
20260505021009 73 145 2.0 3.0 0.00 0.00 0.00 68 1007.1
20260505020007 73 135 1.0 3.0 0.00 0.00 0.00 68 1007.1
20260505015007 74 138 1.0 4.0 0.00 0.00 0.00 67 1007.0
20260505013008 74 134 1.0 4.0 0.00 0.00 0.00 66 1006.8
20260505012006 75 183 1.0 5.0 0.00 0.00 0.00 64 1006.8
20260505011008 75 179 2.0 5.0 0.00 0.00 0.00 64 1006.9
20260505010009 75 174 2.0 5.0 0.00 0.00 0.00 63 1006.8
20260505005007 76 165 2.0 6.0 0.00 0.00 0.00 62 1006.7
20260505004008 76 170 2.0 5.0 0.00 0.00 0.00 61 1006.6
20260505003007 76 159 2.0 6.0 0.00 0.00 0.00 61 1006.7
20260505002007 76 139 2.0 3.0 0.00 0.00 0.00 60 1006.8
20260505000007 77 189 3.0 7.0 0.00 0.00 0.00 59 1007.0
20260504234007 78 163 3.0 7.0 0.00 0.00 0.00 58 1007.4
20260504232007 78 179 3.0 6.0 0.00 0.00 0.00 57 1007.5
20260504231007 78 175 2.0 5.0 0.00 0.00 0.00 57 1007.4
20260504230007 78 176 3.0 6.0 0.00 0.00 0.00 57 1007.4
20260504224007 78 176 3.0 7.0 0.00 0.00 0.00 57 1007.9
20260504222008 79 160 3.0 8.0 0.00 0.00 0.00 55 1008.1
20260504221007 79 163 2.0 6.0 0.00 0.00 0.00 54 1008.0
20260504220009 79 184 3.0 6.0 0.00 0.00 0.00 53 1008.0
20260504213008 79 167 3.0 8.0 0.00 0.00 0.00 51 1008.8
20260504212007 79 166 2.0 8.0 0.00 0.00 0.00 50 1009.0
20260504211007 79 176 3.0 5.0 0.00 0.00 0.00 51 1009.0
20260504210007 79 160 2.0 8.0 0.00 0.00 0.00 51 1009.4
20260504205007 79 176 3.0 7.0 0.00 0.00 0.00 50 1009.5
20260504204007 79 177 3.0 6.0 0.00 0.00 0.00 52 1009.8
20260504202008 78 142 3.0 9.0 0.00 0.00 0.00 51 1010.0
20260504201007 78 146 2.0 6.0 0.00 0.00 0.00 51 1010.1
20260504200007 79 188 3.0 6.0 0.00 0.00 0.00 53 1010.3
20260504195008 78 172 3.0 9.0 0.00 0.00 0.00 52 1010.6
20260504194007 77 161 3.0 7.0 0.00 0.00 0.00 52 1010.7
20260504193007 78 168 3.0 6.0 0.00 0.00 0.00 54 1010.9
20260504192008 77 164 3.0 7.0 0.00 0.00 0.00 52 1011.0
20260504190007 77 167 3.0 8.0 0.00 0.00 0.00 52 1011.5
20260504185007 76 182 3.0 7.0 0.00 0.00 0.00 52 1011.3
20260504184007 76 161 3.0 12.0 0.00 0.00 0.00 52 1011.5
20260504183007 76 164 4.0 7.0 0.00 0.00 0.00 52 1011.8
20260504182007 75 183 4.0 11.0 0.00 0.00 0.00 52 1012.1
20260504181006 76 177 3.0 11.0 0.00 0.00 0.00 51 1012.2
20260504180006 76 179 3.0 7.0 0.00 0.00 0.00 51 1012.2
20260504175007 75 179 4.0 10.0 0.00 0.00 0.00 52 1012.4
20260504174007 74 176 4.0 9.0 0.00 0.00 0.00 53 1012.5
20260504173006 74 174 3.0 9.0 0.00 0.00 0.00 53 1012.8
20260504172007 74 176 3.0 8.0 0.00 0.00 0.00 54 1013.0
20260504151006 68 195 3.0 7.0 0.00 0.00 0.00 66 1014.2
20260504141007 64 173 2.0 6.0 0.00 0.00 0.00 73 1014.1
20260504050007 63 232 0.0 2.0 0.00 0.00 0.00 69 1015.6
20260504045006 62 232 0.0 2.0 0.00 0.00 0.00 73 1015.6
20260504044006 63 0 0.0 3.0 0.00 0.00 0.00 72 1015.6
20260504043007 64 0 0.0 2.0 0.00 0.00 0.00 70 1015.6
20260504042006 64 0 0.0 1.0 0.00 0.00 0.00 68 1015.7
20260504041007 66 0 0.0 1.0 0.00 0.00 0.00 63 1015.7
20260504040006 66 0 0.0 4.0 0.00 0.00 0.00 63 1015.7
20260504035006 65 0 0.0 2.0 0.00 0.00 0.00 65 1015.7
20260504034006 65 0 0.0 2.0 0.00 0.00 0.00 69 1015.8